Dinard-Pleurtuit-Saint-Malo Airport

Jump to: basic info | weather | frequencies | runways | comments

Related pages: nearby airports | nearby navaids | notams | map

Basic information (top)

Codes: DNR LFRD
Location: lon 48.587700, lat -2.079960, elev 219 ft / 67 m msl
Status: medium_airport
Scheduled airline service: yes
Links: Wikipedia Mobile

Weather (top)

Current conditions (rec'd 2014/10/21 13:00Z):

LFRD 211300Z AUTO 30026KT 9999 BKN036 BKN045 OVC054 15/06 Q1018

Airport forecast (rec'd 2014/10/21 12:15Z):

TAF LFRD 211100Z 2112/2212 30025G45KT 9999 BKN030 PROB30 
      TEMPO 2112/2118 5000 SHRA BKN020TCU 
      BECMG 2119/2121 32025G35KT 
      BECMG 2203/2206 31015G25KT

Frequencies (top)

Verify before use: may be inaccurate or out of date.

ATIS: 124.575 MHz (DINARD ATIS)
TWR: 120.15 MHz (DINARD TWR)

Runways (top)

12/30: 4,708 x 148 ft (1,435 x 45 m) — paved — not lighted — threshold 30 displaced 476 ft (145 m)

17/35: 7,218 x 148 ft (2,200 x 45 m) — paved — lighted

Latest comments (top)

No comments yet for Dinard-Pleurtuit-Saint-Malo Airport

More... (top)

See also NOTAMs and nearby airports and navaids, or visit the Dinard-Pleurtuit-Saint-Malo Airport page at the main OurAirports website..